Hourly Data Report for September 29, 2017

All times are specified in Local Standard Time (LST). Add 1 hour to adjust for Daylight Saving Time where and when it is observed.

GJOA HAVEN A
NUNAVUT

68°38'08.000" N
95°51'01.000" W
46.90 m
2302337
71597
YHK

Related Data

No related data is available for this station

Download Data

Hourly Data (September 2017)
Hourly Data Report for September 29, 2017
Temp Definition
°C
Dew Point Temp Definition
°C
Rel Hum Definition
%
Wind Dir Definition
10's deg

Wind Spd Definition
km/h
Visibility Definition
km
Stn Press Definition
kPa
Hmdx Definition


Wind Chill Definition


Weather Definition


TIME
00:00 Legend Double Dagger -1.8 -4.3 83 20 34 16.1 100.84   -9 LegendNANA
01:00 Legend Double Dagger -1.2 -4.1 81 20 32 16.1 100.66   -8 LegendNANA
02:00 Legend Double Dagger -0.9 -4.0 80 20 35 16.1 100.51   -8 LegendNANA
03:00 Legend Double Dagger -1.5 -2.9 90 20 35 8.1 100.36   -9 Snow
04:00 Legend Double Dagger -1.4 -2.1 95 19 24 4.8 100.21   -8 Snow
05:00 Legend Double Dagger -0.9 -1.3 97 18 22 4.0 100.04   -7 Snow
06:00 Legend Double Dagger -1.0 -1.3 98 16 28 4.8 99.89   -8 Snow
07:00 Legend Double Dagger -0.8 -1.2 97 15 26 4.8 99.75   -7 Snow
08:00 Legend Double Dagger -0.6 -1.2 96 14 24 9.7 99.63   -7 Snow
09:00 Legend Double Dagger -0.4 -1.0 96 13 21 16.1 99.53   -6 Snow
10:00 Legend Double Dagger -0.5 -1.2 95 12 18 14.5 99.43   -6 LegendNANA
11:00 Legend Double Dagger -0.4 -1.1 95 9 17 16.1 99.37   -5 Snow
12:00 Legend Double Dagger -0.2 -1.2 93 6 17 16.1 99.33   -5 Snow
13:00 Legend Double Dagger -0.3 -1.2 94 4 22 16.1 99.30   -6 Snow
14:00 Legend Double Dagger -0.6 -1.2 96 5 26 16.1 99.31   -7 Snow
15:00 Legend Double Dagger -1.1 -2.1 93 5 28 16.1 99.35   -8 LegendNANA
16:00 Legend Double Dagger -1.5 -2.5 93 5 37 16.1 99.40   -9 Snow
17:00 Legend Double Dagger -2.2 -3.0 94 5 46 3.2 99.50   -11 Snow
18:00 Legend Double Dagger -2.7 -5.0 84 5 45 16.1 99.63   -11 LegendNANA
19:00 Legend Double Dagger -2.9 -6.4 77 4 52 16.1 99.74   -12 LegendNANA
20:00 Legend Double Dagger -2.7 -5.2 83 5 48 16.1 99.87   -12 LegendNANA
21:00 Legend Double Dagger -2.7 -6.2 77 5 50 16.1 100.00   -12 LegendNANA
22:00 Legend Double Dagger -2.8 -6.2 78 5 43 16.1 100.16   -11 LegendNANA
23:00 Legend Double Dagger -3.1 -7.6 71 4 35 16.1 100.33   -11 LegendNANA

Notes on Data Quality.

Legend

  • E = Estimated
  • M = Missing
  • NA = Not Available
  • ‡ = Partner data that is not subject to review by the National Climate Archives
Date modified: